Hourly Data Report for May 05, 2012

All times are specified in Local Standard Time (LST). Add 1 hour to adjust for Daylight Saving Time where and when it is observed.

YARMOUTH A
NOVA SCOTIA

43°49'37.000" N
66°05'17.000" W
42.90 m
8206495
71603
YQI

Download Data

Hourly Data (May 2012)
Hourly Data Report for May 5, 2012
Temp Definition
°C
Dew Point Temp Definition
°C
Rel Hum Definition
%
Wind Dir Definition
10's deg

Wind Spd Definition
km/h
Visibility Definition
km
Stn Press Definition
kPa
Hmdx Definition


Wind Chill Definition


Weather Definition


TIME
00:00 Legend Double Dagger 4.2 3.8 97 15 10 10.0 101.12     LegendNANA
01:00 Legend Double Dagger 4.5 4.2 98 14 9 10.0 101.06     LegendNANA
02:00 Legend Double Dagger 3.8 3.7 99   0 10.0 101.02     Cloudy
03:00 Legend Double Dagger 4.9 4.6 98 17 5 10.0 101.03     LegendNANA
04:00 Legend Double Dagger 5.3 5.0 98   0 10.0 101.03     LegendNANA
05:00 Legend Double Dagger 5.1 4.7 97   0 10.0 101.07     Cloudy
06:00 Legend Double Dagger 5.6 5.3 98 5 4 10.0 101.09     LegendNANA
07:00 Legend Double Dagger 6.4 6.1 98   0 10.0 101.11     LegendNANA
08:00 Legend Double Dagger 7.2 5.8 91 12 4 10.0 101.12     Cloudy
09:00 Legend Double Dagger 7.9 6.4 90   0 10.0 101.13     LegendNANA
10:00 Legend Double Dagger 8.6 6.9 89   0 10.0 101.14     LegendNANA
11:00 Legend Double Dagger 9.4 6.5 82   0 10.0 101.15     Cloudy
12:00 Legend Double Dagger 9.6 5.8 77 27 10 10.0 101.14     LegendNANA
13:00 Legend Double Dagger 10.4 5.8 73 29 15 10.0 101.14     LegendNANA
14:00 Legend Double Dagger 10.8 6.4 74 30 18 10.0 101.12     Cloudy
15:00 Legend Double Dagger 10.4 6.4 76 31 17 10.0 101.12     LegendNANA
16:00 Legend Double Dagger 10.6 6.2 74 33 18 10.0 101.09     LegendNANA
17:00 Legend Double Dagger 10.7 6.5 75 34 16 10.0 101.10     Mostly Cloudy
18:00 Legend Double Dagger 9.3 5.5 77 33 17 10.0 101.08     LegendNANA
19:00 Legend Double Dagger 8.7 5.8 82 32 15 10.0 101.09     LegendNANA
20:00 Legend Double Dagger 6.7 6.1 96 33 17 10.0 101.11     Mostly Cloudy
21:00 Legend Double Dagger 6.7 6.6 99 33 19 1.6 101.16     Fog
22:00 Legend Double Dagger 6.6 6.6 100 34 15 0.6 101.19     Fog
23:00 Legend Double Dagger 6.7 6.7 100 35 14 1.2 101.19     Fog

Notes on Data Quality.

Legend

  • E = Estimated
  • M = Missing
  • NA = Not Available
  • ‡ = Partner data that is not subject to review by the National Climate Archives
Date modified: